User: anonymous   Login
Location: Ab? ar R?sh Ba?r?
(24.1861°N, 32.8847°E)
Time: 06:50:43
(UTC+00:00)
Language:

ARGOS - Orbit

View from above orbital plane
View from above orbital plane
View from above satellite
View from above satellite

Ground track
Ground track

The orbit data is extracted from the following two-line orbital elements,

1 25634U 99008A   22016.57496172  .00000023  00000-0  30377-4 0  9997
2 25634  98.4033  38.5937 0010961  45.6250 314.5823 14.19413794185499
Epoch (UTC): 16 January 2022 13:47:56
Eccentricity: 0.0010961
inclination: 98.4033°
perigee height: 819 km
apogee height: 835 km
right ascension of ascending node: 38.5937°
argument of perigee: 45.6250°
revolutions per day: 14.19413794
mean anomaly at epoch: 314.5823°
orbit number at epoch: 18549

The dashed part of the orbit path shows where the satellite is in the earth's shadow,  

DLR